{"data":{"norad_id":58020,"epoch":"2026-09-21T16:49:01.531488Z","epoch_age_seconds":130333,"freshness":"FRESH","line1":"1 58020U 23155E   26264.70071217  .00011796  00000+0  37332-3 0  9990","line2":"2 58020  97.5870 352.7828 0005103 205.0662 155.0333 15.32912591163264","mean_motion":15.32912591,"eccentricity":0.0005103,"inclination_deg":97.587,"raan_deg":352.7828,"arg_perigee_deg":205.0662,"mean_anomaly_deg":155.0333,"bstar":0.00037332,"rev_number":16326,"period_min":93.938820024996,"perigee_km":463.63456896468,"apogee_km":470.6208461252,"semimajor_km":6845.2647075449,"source":"CELESTRAK","updated_at":"2026-09-22T09:00:26.440883Z"}}